TimeEDT,TemperatureF,Dew PointF,Humidity,Sea Level PressureIn,VisibilityMPH,Wind Direction,Wind SpeedMPH,Gust SpeedMPH,PrecipitationIn,Events,Conditions,WindDirDegrees,DateUTC
12:50 AM,71.6,71.6,100,30.06,10.0,Calm,Calm,-,N/A,,Mostly Cloudy,0,2013-07-22 04:50:00
12:53 AM,72.0,71.1,97,30.04,9.0,Calm,Calm,-,N/A,,Mostly Cloudy,0,2013-07-22 04:53:00
1:25 AM,71.6,71.6,100,30.05,7.0,Calm,Calm,-,N/A,,Scattered Clouds,0,2013-07-22 05:25:00
1:53 AM,72.0,70.0,93,30.02,8.0,Calm,Calm,-,N/A,,Clear,0,2013-07-22 05:53:00
2:51 AM,71.6,69.8,94,30.01,7.0,Calm,Calm,-,N/A,,Scattered Clouds,0,2013-07-22 06:51:00
2:53 AM,71.1,70.0,96,29.99,7.0,Calm,Calm,-,N/A,,Scattered Clouds,0,2013-07-22 06:53:00
3:02 AM,71.6,69.8,94,30.01,8.0,Calm,Calm,-,N/A,,Mostly Cloudy,0,2013-07-22 07:02:00
3:53 AM,72.0,71.1,97,29.99,6.0,WSW,3.5,-,N/A,,Overcast,250,2013-07-22 07:53:00
4:07 AM,71.6,71.6,100,30.01,6.0,WSW,3.5,-,N/A,,Overcast,250,2013-07-22 08:07:00
4:53 AM,72.0,72.0,100,29.99,3.0,West,5.8,-,N/A,,Overcast,260,2013-07-22 08:53:00
5:36 AM,73.4,71.6,94,30.02,6.0,West,3.5,-,N/A,,Overcast,260,2013-07-22 09:36:00
5:53 AM,73.0,71.1,93,30.00,8.0,West,4.6,-,N/A,,Overcast,270,2013-07-22 09:53:00
6:09 AM,73.4,71.6,94,30.02,8.0,West,4.6,-,N/A,,Overcast,270,2013-07-22 10:09:00
6:53 AM,73.0,71.1,93,30.01,10.0,Calm,Calm,-,N/A,,Overcast,0,2013-07-22 10:53:00
7:53 AM,73.0,71.1,93,30.03,9.0,WSW,3.5,-,N/A,,Overcast,240,2013-07-22 11:53:00
8:07 AM,73.4,71.6,94,30.05,9.0,West,3.5,-,N/A,,Overcast,270,2013-07-22 12:07:00
8:53 AM,73.9,72.0,93,30.04,10.0,Variable,4.6,-,N/A,,Overcast,0,2013-07-22 12:53:00
9:20 AM,73.4,71.6,94,30.06,10.0,West,3.5,-,N/A,,Overcast,260,2013-07-22 13:20:00
9:36 AM,75.2,71.6,89,30.06,10.0,Variable,3.5,-,N/A,,Overcast,0,2013-07-22 13:36:00
9:49 AM,75.2,71.6,89,30.06,10.0,WSW,8.1,-,N/A,,Mostly Cloudy,250,2013-07-22 13:49:00
9:53 AM,75.9,72.0,87,30.04,10.0,WSW,8.1,-,N/A,,Mostly Cloudy,250,2013-07-22 13:53:00
10:01 AM,77.0,71.6,83,30.05,10.0,Calm,Calm,-,N/A,,Scattered Clouds,0,2013-07-22 14:01:00
10:23 AM,77.0,71.6,83,30.05,10.0,Variable,5.8,-,N/A,,Mostly Cloudy,0,2013-07-22 14:23:00
10:53 AM,79.0,71.1,77,30.04,10.0,West,6.9,-,N/A,,Scattered Clouds,270,2013-07-22 14:53:00
11:07 AM,78.8,71.6,78,30.05,10.0,West,9.2,-,N/A,,Mostly Cloudy,270,2013-07-22 15:07:00
11:42 AM,80.6,71.6,74,30.05,10.0,Variable,4.6,-,N/A,,Mostly Cloudy,0,2013-07-22 15:42:00
12:53 PM,81.0,72.0,74,30.03,10.0,Variable,5.8,-,N/A,,Mostly Cloudy,0,2013-07-22 16:53:00
1:53 PM,82.0,72.0,71,30.00,10.0,WSW,6.9,-,N/A,,Mostly Cloudy,250,2013-07-22 17:53:00
2:53 PM,84.9,72.0,65,29.98,10.0,West,8.1,-,N/A,,Scattered Clouds,270,2013-07-22 18:53:00
3:53 PM,84.9,73.0,67,29.95,10.0,Calm,Calm,-,N/A,,Scattered Clouds,0,2013-07-22 19:53:00
4:53 PM,84.9,73.0,67,29.94,10.0,Variable,5.8,-,N/A,,Partly Cloudy,0,2013-07-22 20:53:00
5:53 PM,84.0,73.0,69,29.91,10.0,Variable,3.5,-,N/A,,Partly Cloudy,0,2013-07-22 21:53:00
6:53 PM,82.0,73.0,74,29.92,10.0,South,5.8,-,N/A,,Scattered Clouds,170,2013-07-22 22:53:00
7:53 PM,79.0,73.0,82,29.94,10.0,Variable,3.5,-,N/A,,Partly Cloudy,0,2013-07-22 23:53:00
8:53 PM,77.0,72.0,84,29.97,6.0,SSW,4.6,-,0.02,,Haze,210,2013-07-23 00:53:00
9:01 PM,75.2,73.4,94,29.98,1.5,Variable,4.6,-,0.08,Rain,Rain,0,2013-07-23 01:01:00
9:11 PM,75.2,73.4,94,29.98,3.0,Variable,4.6,-,0.11,Rain,Rain,0,2013-07-23 01:11:00
9:13 PM,75.2,73.4,94,29.98,2.5,West,4.6,-,0.12,Rain,Rain,260,2013-07-23 01:13:00
9:32 PM,75.2,73.4,94,29.98,9.0,Variable,5.8,-,0.16,Rain,Light Rain,0,2013-07-23 01:32:00
9:41 PM,75.2,73.4,94,29.98,8.0,Variable,6.9,-,0.16,Rain,Light Rain,0,2013-07-23 01:41:00
9:53 PM,73.9,72.0,93,29.95,10.0,SW,4.6,-,0.16,Rain,Light Rain,230,2013-07-23 01:53:00
10:53 PM,73.9,72.0,93,29.96,10.0,West,5.8,-,N/A,,Partly Cloudy,270,2013-07-23 02:53:00
11:53 PM,73.0,71.1,93,29.96,10.0,West,3.5,-,N/A,,Scattered Clouds,270,2013-07-23 03:53:00